RH
32 30 29 28 27 25 25 25 24 23 22 23 25 25 25 26 25 23 24 23 22 21 20 20 20 23 25 26 25 25 22 20 18 16 16 15 15 15 15 15 16 17 19 20 20
37 34 33 33 30 28 27 27 25 25 25 25 24 25 24 25 28 29 27 27 27 26 23 23 22 23 24 26 27 25 22 21 20 18 19 19 18 18 17 16 16 18 18 19 20
38 37 36 34 32 30 29 28 27 26 26 25 26 25 25 24 27 30 34 33 29 26 26 27 26 25 25 26 27 25 22 23 23 23 23 21 20 20 18 17 18 17 20 19 19
36 35 34 33 31 29 28 27 27 27 27 27 27 27 27 27 27 28 27 30 33 33 32 32 31 31 27 27 27 27 25 25 24 25 25 24 24 21 21 21 21 20 20 20 20
33 32 32 30 30 29 29 27 27 27 27 26 27 28 28 30 32 28 27 27 27 33 38 39 38 36 33 32 31 30 28 27 28 27 26 26 25 23 23 24 23 22 22 21 21
36 35 34 33 32 32 31 30 28 28 26 25 26 27 30 32 31 30 28 27 29 30 35 37 39 40 37 34 33 31 32 30 30 29 27 26 25 25 25 24 24 24 24 25 23
39 37 35 35 34 31 30 29 30 30 29 29 29 30 33 33 31 31 30 29 28 28 32 33 38 40 38 38 36 34 32 30 30 30 29 27 27 24 24 24 24 24 24 25 24
40 38 36 34 32 31 29 28 27 26 26 25 25 28 30 30 32 34 34 36 33 30 30 32 35 36 38 38 37 35 33 32 29 29 27 28 23 26 25 23 23 21 21 22 21
37 37 35 31 29 27 23 21 20 17 16 17 22 24 25 26 31 28 28 33 35 38 32 32 36 36 34 34 33 31 32 31 31 31 29 27 26 27 27 22 20 19 17 17 18
38 35 31 26 22 19 16 14 13 13 12 12 16 19 17 19 20 24 25 26 30 34 37 36 38 38 36 36 31 32 31 31 30 30 30 28 27 26 24 22 20 18 15 15 15
32 28 22 18 16 14 12 12 15 15 12 12 13 15 18 18 18 20 27 28 31 34 38 37 38 34 38 39 36 32 30 29 28 32 29 23 22 24 23 19 16 14 14 14 15
24 19 16 14 13 12 10 14 16 12 13 15 17 18 18 21 22 22 23 31 31 31 34 42 35 34 35 38 39 34 32 28 28 33 30 24 22 20 18 16 14 14 15 20 16
17 15 13 11 10 8 8 10 11 13 17 13 20 20 15 19 23 20 25 28 34 39 39 39 34 39 42 44 43 42 38 34 29 30 31 26 23 20 21 18 15 14 15 14 15
15 12 9 8 8 7 11 7 9 11 14 8 19 18 12 11 18 18 22 29 36 36 37 39 45 44 43 44 46 48 46 36 30 35 33 28 29 28 29 21 19 17 16 19 22
10 9 7 6 6 9 6 5 9 17 5 10 15 14 10 10 11 10 15 23 32 38 41 43 50 54 54 47 47 47 46 44 43 37 35 33 38 32 32 29 22 22 25 28 27
9 7 6 5 4 4 4 6 11 10 6 12 13 11 8 13 10 9 10 17 22 32 39 46 55 55 54 50 53 46 47 54 49 46 45 36 35 27 30 28 28 32 33 30 27
7 6 5 5 7 4 4 9 8 5 7 18 17 12 9 16 11 10 8 16 21 24 41 45 45 52 63 58 56 53 54 59 64 62 47 33 32 27 30 38 40 39 33 35 33
7 6 6 6 6 6 6 9 8 13 18 18 17 14 18 21 16 15 12 9 29 25 28 41 55 60 56 64 64 63 60 57 61 52 44 41 37 40 47 42 41 38 37 36 36
6 7 8 8 8 8 12 7 15 22 24 24 19 19 26 28 29 25 20 15 29 33 36 36 46 68 66 73 62 69 73 57 56 51 46 43 57 62 54 46 43 42 39 45 43
8 13 16 12 10 11 13 19 23 25 27 30 31 33 37 36 36 35 27 21 26 42 48 48 45 54 70 82 77 63 64 63 63 62 49 37 46 48 54 44 37 35 35 35 36
9 20 17 13 13 17 20 23 26 29 30 34 38 40 44 47 45 44 39 28 32 33 34 43 57 46 62 74 90 92 78 76 70 58 54 47 43 51 57 50 44 38 32 28 29
13 25 17 15 23 24 25 28 27 30 37 40 47 53 57 54 52 52 46 44 43 42 42 50 48 60 56 65 77 82 96 97 90 72 60 56 54 60 60 55 46 40 33 31 25
20 23 20 19 31 30 32 34 38 44 48 52 50 50 52 52 63 51 52 50 54 52 59 68 57 58 53 60 70 83 72 77 85 87 72 68 55 68 61 48 37 32 28 26 22
21 27 26 26 31 35 36 39 41 44 41 43 47 56 65 69 67 69 68 70 66 60 62 62 63 66 61 82 79 72 80 73 66 69 73 60 55 57 46 35 30 25 24 24 21
21 28 26 38 37 36 38 42 51 50 48 55 64 79 81 86 80 78 76 78 73 57 63 65 64 59 53 50 60 71 73 69 68 63 57 49 48 39 37 34 29 26 24 22 22
26 29 29 36 35 40 44 48 50 50 57 73 83 90 84 87 98 95 79 87 78 69 68 70 63 62 55 47 57 61 60 62 58 59 56 49 44 34 34 27 25 26 24 24 31
24 26 34 37 41 42 46 46 50 59 63 76 90 90 76 81 74 74 73 73 70 77 73 69 67 67 68 58 51 54 41 48 52 44 44 47 35 28 27 26 26 26 25 36 44